Regional Weather Roundup
Issued by NWS Upton, NY

Current Version | Previous Version | Text Only | Print | Product List | Glossary On
Versions: 1 2 3 4 5 6 7 8 9 10 11 12 13 14 15 16 17 18 19 20 21 22 23 24 25 26 27 28
000
ASUS41 KOKX 280704
RWROKX

REGIONAL WEATHER ROUNDUP
NATIONAL WEATHER SERVICE NEW YORK NY
300 AM EDT SUN AUG 28 2016

NOTE: "FAIR" INDICATES FEW OR NO CLOUDS BELOW 12,000 FEET WITH NO
SIGNIFICANT WEATHER AND/OR OBSTRUCTIONS TO VISIBILITY.

NYZ071-072-176-178-NJZ106-104-280800-
NEW YORK CITY METRO AREA

CITY           SKY/WX    TMP DP  RH WIND       PRES   REMARKS
Central Park   CLEAR     74  61  63 VRB5      30.24S
LaGuardia APRT PTCLDY    76  66  71 SE7       30.20F
Kennedy INTL   PTCLDY    74  65  73 E3        30.22S
Newark/Liberty MOCLDY    74  69  85 SE3       30.21S
Bronx Bot Gard   N/A     70  63  78 E1        30.21S
Wall St Helipt SUNNY     75  66  73 SE6       30.22S
Teterboro      PTCLDY    71  63  75 CALM      30.20S
$$

NYZ177-179-078>081-280800-
LONG ISLAND NEW YORK

CITY           SKY/WX    TMP DP  RH WIND       PRES   REMARKS
Farmingdale    CLEAR     70  67  90 CALM      30.22S
MacArthur/ISP  CLEAR     68  65  90 CALM      30.21F
Shirley        CLEAR     64  63  96 CALM      30.23S
Riverhead      NOT AVBL
Westhampton    CLEAR     60  57  89 CALM      30.24F
Southampton      N/A     70  66  88 S2        30.19S
Bridgehampton    N/A     66  64  94 CALM      30.23S
East Hampton   FAIR      61  59  94 CALM      30.22F
Montauk          N/A     68  65  90 CALM      30.24F
$$

NYZ052-065-067-280800-
HUDSON VALLEY

CITY           SKY/WX    TMP DP  RH WIND       PRES   REMARKS
White Plains   CLEAR     66  61  84 CALM      30.22S
Newburgh       CLEAR     66  63  88 CALM      30.23F
Montgomery     CLEAR     63  61  93 CALM      30.22S
Poughkeepsie   CLOUDY    64  62  93 CALM      30.20F
Albany         PTCLDY    66  63  90 CALM      30.20F
$$

NJZ001-105-106-008-010-013-015-019>022-104-280800-
NEW JERSEY

CITY           SKY/WX    TMP DP  RH WIND       PRES   REMARKS
Newark/Liberty MOCLDY    74  69  85 SE3       30.21S
Teterboro      PTCLDY    71  63  75 CALM      30.20S
Caldwell       CLEAR     67  62  84 CALM      30.23R
Morristown     CLEAR     59  59 100 CALM      30.22S
Somerville     PTCLDY    63  60  90 CALM      30.20F
Linden         FAIR      71  67  86 CALM      30.22F
Sussex         CLEAR     62  61  96 CALM      30.22F
Abdover          N/A     61  59  93 CALM      30.23F
Trenton        CLEAR     66  61  84 N3        30.21S
Millville      CLEAR     65  65 100 CALM      30.20S FOG
Atlantic City  CLEAR     67  65  93 E3        30.20S
Wrightstown    NOT AVBL
Toms River     CLEAR     60  56  86 CALM      30.21S
Belmar         CLEAR     70  68  93 E3        30.22S
$$

PAZ047>061-062-071-280800-
EASTERN PENNSYLVANIA

CITY           SKY/WX    TMP DP  RH WIND       PRES   REMARKS
Philadelphia   PTCLDY    73  69  87 CALM      30.21S
Allentown      CLEAR     66  60  81 NE5       30.22F
Scranton       CLEAR     68  60  75 CALM      30.22S
$$

CTZ002-004>006-009-010-012-RIZ004-006-007-MAZ004-011-015-280800-
SOUTHERN NEW ENGLAND
 IN CT

CITY           SKY/WX    TMP DP  RH WIND       PRES   REMARKS
Bradley INTL   CLOUDY    68  60  75 CALM      30.23S
Hartford       CLOUDY    70  63  78 CALM      30.22S
Danbury        CLOUDY    61  59  93 CALM      30.24F
Wtrbury/Oxford   N/A     64  57  77 CALM      30.25F
Bridgeport     CLEAR     73  67  81 CALM      30.22S
Meriden        CLEAR     65  61  87 CALM      30.23S
New Haven      CLEAR     66  63  90 CALM      30.23S
Chester        PTSUNNY   68  66  94 CALM      30.25S
Groton         CLEAR     69  66  90 NE3       30.23F
Wilimantic     CLEAR     64  63  96 CALM      30.25F

 IN RI

CITY           SKY/WX    TMP DP  RH WIND       PRES   REMARKS
Providence     CLEAR     68  65  90 CALM      30.25S
Block Island   PTCLDY    69  64  84 SE6       30.24F
Westerly       CLEAR     64  60  87 CALM      30.25F
 IN MA

CITY           SKY/WX    TMP DP  RH WIND       PRES   REMARKS
Boston         MOCLDY    69  64  84 SE6       30.25S
Worcester      CLEAR     65  60  84 S6        30.27S
Westfield      CLOUDY    65  63  93 CALM      30.23S
Provincetown   CLEAR     59  56  89 CALM      30.26F
Nantucket      CLEAR     62  60  93 CALM      30.24F FOG
$$

ANZ330-335-338-340-345-350-353-355-280800-
COASTAL MARINE OBSERVATIONS


STATION/POSITION TIME  SKY/WX   TEMP    WIND        PRES    VSBY  WAVE
                                AIR SEA DIR/SP/G                  HT/PER
                 (UTC)          (F)     (DEG/KT/KT) (MB)    (MI)  (FT/S)
NY HARB ENTRANCE 0550            75 75  140/  8/ 10 1022.9          2/ 9
20S FIRE ISLAND  0550            75 74  110/  8/ 10 1023.1          3/ 9
GREAT SOUTH BAY  0615            75 79  140/  8/ 10   N/A
23 SSW MONTAUK P 0550            75 77  130/ 10/ 10 1024.2          2/ 9
15 E BARNEGAT LI 0600               76                N/A           3/ 9
HUDSON CANYON    0550            78 78              1022.7          3/ 9
KINGS POINT      0600            73 77              1023.0
EXECUTION ROCKS  0600            74     110/  2/  4   N/A
CENTRAL LI SOUND NOT AVBL
EASTERN LI SOUND 0600            71 71  130/  4/  6   N/A
ROBBINS REEF     0600            75     150/  5/  6 1022.4
$$


>>>>>>>>>>>>>>>>>>>>>>>>>>>> KEY <<<<<<<<<<<<<<<<<<<<<<<<<<<
>                                                          <
>     SKY/WX - Sky Condition/Present Weather               <
>     TMP    - Temperature in Fahrenheit                   <
>     DP     - Dew Point in Fahrenheit                     <
>     RH     - Relative Humidity in Percent                <
>     WIND   - Direction (from) and Speed in MPH           <
>     PRES   - Mean Sea Level Pressure (inches of Hg)      <
>     WCI    - Wind Chill Index                            <
>     VSB    - VISIBILITY IN MILES                         <
>     HX     - HEAT INDEX                                  <
>     TC     - TEMPERATURE IN CELSIUS                      <
>     VRB    - VARIABLE WIND DIRECTION                     <
>                                                          <
>>>>>>>>>>>>>>>>>>>>>>>>>>>> KEY <<<<<<<<<<<<<<<<<<<<<<<<<<<




USA.gov is the U.S. government's official web portal to all federal, state and local government web resources and services.